AirNav   Air Wisconsin Up To $57,000 Bonus
 
 998 users online  

58C Jana Airport
Edgerton, Wisconsin, USA

GOING TO EDGERTON?


FAA INFORMATION EFFECTIVE 30 JANUARY 2020

Location

FAA Identifier: 58C
Lat/Long: 42-52-22.0160N 089-04-32.4050W
42-52.366933N 089-04.540083W
42.8727822,-89.0756681
(estimated)
Elevation: 842 ft. / 257 m (estimated)
Variation: 00W (1985)
From city: 3 miles N of EDGERTON, WI
Time zone: UTC -6 (UTC -5 during Daylight Saving Time)
Zip code: 53534

Airport Operations

Airport use: Open to the public
Activation date: 10/1947
Control tower: no
ARTCC: CHICAGO CENTER
FSS: GREEN BAY FLIGHT SERVICE STATION
NOTAMs facility: GRB (NOTAM-D service available)
Attendance: IREG
Wind indicator: yes
Segmented circle: no

Airport Communications

CTAF: 122.9
WX AWOS-3 at JVL (15 nm S): PHONE 608-758-1723
WX ASOS at MSN (20 nm NW): PHONE 608-249-0615

Nearby radio navigation aids

VOR radial/distance  VOR name  Freq  Var
JVLr001/18.9JANESVILLE VOR/DME114.3003E
MSNr142/20.0MADISON VORTAC108.6003E
BAEr245/37.7BADGER VOR/DME116.4002E
RFDr007/39.2ROCKFORD VOR/DME110.8001E

 
NDB name  Hdg/Dist  Freq  Var  ID
LAKE LAWN298/23.740402WLVV .-.. ...- ...-
ROCK RIVER221/23.737101WRYV .-. -.-- ...-
JUNEAU207/37.234401WUNU ..- -. ..-

Airport Services

Parking: tiedowns
Bottled oxygen: NONE
Bulk oxygen: NONE

Runway Information

Runway 18/36

Dimensions: 2305 x 135 ft. / 703 x 41 m
Surface: turf, in good condition
Runway edge markings: RWY 18 /36 MKD BY PAIRS OF RED METAL A-FRAMES; ENDS OF STWYS MKD WITH 3 RED METAL A-FRAMES ON CNTRLN.
RUNWAY 18  RUNWAY 36
Latitude: 42-52.550500N42-52.166833N
Longitude: 089-04.540000W089-04.540000W
Elevation: 842.0 ft.840.0 ft.
Traffic pattern: leftleft
Markings: nonenone
Runway end identifier lights: nono
Obstructions: 41 ft. tree, 450 ft. from runway, 130 ft. left of centerline, 11:1 slope to clear
APCH RATIO 20:1 TO DSPLCD THR
63 ft. tree, 2600 ft. from runway, 350 ft. left of centerline, 41:1 slope to clear

Airport Ownership and Management from official FAA records

Ownership: Privately-owned
Owner: S. A. JANA REVOCABLE TRUST
703 RUSKIN STREET
MADISON, WI 53704
Phone 608-241-8140
CONTACT BRENDA KLICKER 608-241-8140
Manager: DON BECKER
406 HIGHWAY STREET
EDGERTON, WI 53534
Phone 608-884-3403

Airport Operational Statistics

Aircraft based on the field: 10
Single engine airplanes: 6
Ultralights: 4
    
Aircraft operations: avg 77/week *
50% transient general aviation
50% local general aviation
<1% military
* for 12-month period ending 17 July 2019

Additional Remarks

FOR CD CTC CHICAGO ARTCC AT 630-906-8921.

Instrument Procedures

There are no published instrument procedures at 58C.

Some nearby airports with instrument procedures:

61C - Fort Atkinson Municipal Airport (13 nm NE)
87Y - Blackhawk Airfield (15 nm N)
KJVL - Southern Wisconsin Regional Airport (15 nm S)
KMSN - Dane County Regional Airport-Truax Field (20 nm NW)
44C - Beloit Airport (23 nm S)
 
Loc | Ops | Rwys | IFR | FBO | Links
Com | Nav | Svcs | Stats | Notes
Area around 58C (Jana Airport)
 
Road maps at: MapQuest Bing Google
 
Aerial photo
WARNING: Photo may not be current or correct
Aerial photo of 58C (Jana Airport)
Do you have a better or more recent aerial photo of Jana Airport that you would like to share? If so, please send us your photo.

 
Sectional chart

 
Airport distance calculator
Flying to Jana Airport? Find the distance to fly.

From to 58C

Sunrise and sunset
Times for 20-Feb-2020
 Local
(UTC-6)
 Zulu
(UTC)
Morning civil twilight06:1912:19
Sunrise06:4712:47
Sunset17:3323:33
Evening civil twilight18:0200:02

Current date and time
Zulu (UTC)  21-Feb-2020 01:21:49
Local (UTC-6)  20-Feb-2020 19:21:49
 
METAR
KJVL 
16nm S 
210045Z 24005KT 10SM SKC M11/M18 A3066
KMSN 
20nm NW 
210053Z 22003KT 10SM CLR M12/M20 A3063 RMK AO2 SLP398 T11221200 $
KRYV 
24nm NE 
210055Z AUTO 22004KT 10SM CLR M12/M21 A3063 RMK AO2 T11221209
KC29 
25nm NW 
210055Z AUTO 00000KT 10SM CLR M14/M22 A3064 RMK AO1 T11441222
KEFT 
28nm SW 
210055Z AUTO 26010KT 10SM CLR M12/M19 A3063 RMK AO2 T11171190
TAF
KMSN 
20nm NW 
202024Z 2020/2118 29006KT P6SM SKC FM202300 27004KT P6SM SKC FM210300 24005KT P6SM SKC FM211100 22006KT P6SM SKC FM211700 22012G20KT P6SM SKC
NOTAMs
Click for the latest NOTAMs
NOTAMs are issued by the DoD/FAA and will open in a separate window not controlled by AirNav.

 

 
 

Would you like to see your business listed on this page?

 If your business provides an interesting product or service to pilots, flight crews, aircraft, or users of the Jana Airport, you should consider listing it here.  To start the listing process, click on the button below
 
Add a business
 

Other Pages about Jana Airport

Page from the Wisconsin airport directory (PDF)
 
Update a link
 
Copyright © AirNav, LLC. All rights reserved. Privacy Policy  Contact